This demonstration page uses our WeatherBlox Daily Observations layout. Learn more.

Left ArrowRight Arrow

53.62937, 11.41316

Hourly Observations for May 6, 2021

Temp ( °F °C ) Dew Point ( °F °C ) Humidity (%) Winds ( mph kmh ) Pressure ( in mb ) Visibility ( mi km ) Precip ( " mm )
7:50 am 07:50 Mostly Sunny 41 5 36 2 81 81 SW 16 26 29.62 1003 30 48 N/A
8:20 am 08:20 Mostly Sunny 43 6 34 1 71 71 SW 18 30 29.62 1003 30 48 N/A
8:50 am 08:50 Mostly Sunny 43 6 36 2 76 76 SW 18 30 29.62 1003 30 48 N/A
9:20 am 09:20 Partly Cloudy 43 6 36 2 76 76 SW 20 31 29.62 1003 30 48 N/A
9:50 am 09:50 Partly Cloudy 45 7 36 2 71 71 SW 17 28 29.62 1003 30 48 N/A
10:20 am 10:20 Partly Cloudy 48 9 34 1 58 58 SW 17 28 29.62 1003 30 48 N/A
10:50 am 10:50 Partly Cloudy 48 9 36 2 62 62 SW 20 31 29.62 1003 30 48 N/A
11:20 am 11:20 Mostly Sunny 48 9 34 1 58 58 SW 18 30 29.62 1003 30 48 N/A
11:50 am 11:50 Partly Cloudy with Showers Nearby 48 9 34 1 58 58 SW 15 24 29.65 1004 30 48 N/A
12:20 pm 12:20 Partly Cloudy with Showers Nearby 46 8 34 1 62 62 SW 15 24 29.65 1004 30 48 N/A
12:50 pm 12:50 Partly Cloudy with Showers Nearby 48 9 34 1 58 58 WSW 10 17 29.65 1004 30 48 N/A
1:20 pm 13:20 Partly Cloudy with Showers Nearby 48 9 32 undefined 54 54 SW 20 31 29.65 1004 30 48 N/A
1:50 pm 13:50 Partly Cloudy with Showers Nearby 50 10 34 1 54 54 SW 17 28 29.65 1004 30 48 N/A
2:20 pm 14:20 Partly Cloudy with Showers Nearby 52 11 36 2 54 54 SW 18 30 29.65 1004 30 48 N/A
2:50 pm 14:50 Partly Cloudy with Showers Nearby 50 10 34 1 54 54 SSW 18 30 29.65 1004 30 48 N/A
3:20 pm 15:20 Partly Cloudy with Showers Nearby 52 11 34 1 50 50 SW 14 22 29.65 1004 30 48 N/A
3:50 pm 15:50 Partly Cloudy with Showers Nearby 52 11 32 undefined 47 47 SW 17 28 29.65 1004 30 48 N/A
4:20 pm 16:20 Partly Cloudy with Showers Nearby 50 10 30 -1 47 47 SSW 13 20 29.65 1004 30 48 N/A
4:50 pm 16:50 Partly Cloudy with Showers Nearby 48 9 34 1 58 58 SW 9 15 29.65 1004 30 48 N/A
5:20 pm 17:20 Partly Cloudy 52 11 28 -2 41 41 WSW 10 17 29.65 1004 30 48 N/A
5:50 pm 17:50 Mostly Sunny 52 11 25 -4 35 35 WSW 9 15 29.65 1004 30 48 N/A
6:20 pm 18:20 Mostly Sunny 50 10 27 -3 40 40 W 8 13 29.65 1004 30 48 N/A
6:50 pm 18:50 Mostly Sunny 48 9 27 -3 43 43 WSW 7 11 29.65 1004 7 11 N/A
7:20 pm 19:20 Mostly Sunny 48 9 27 -3 43 43 WSW 7 11 29.65 1004 7 11 N/A
7:50 pm 19:50 Mostly Sunny 48 9 27 -3 43 43 WSW 6 9 29.65 1004 7 11 N/A
8:20 pm 20:20 Mostly Sunny 48 9 30 -1 50 50 WSW 5 7 29.65 1004 7 11 N/A
8:50 pm 20:50 Mostly Sunny 46 8 30 -1 53 53 WSW 3 6 29.65 1004 7 11 N/A
9:20 pm 21:20 Mostly Clear 45 7 30 -1 57 57 VRB 2 4 29.65 1004 7 11 N/A
9:50 pm 21:50 Mostly Clear 41 5 30 -1 66 66 WSW 2 4 29.68 1005 7 11 N/A

Powered by AerisWeather